Regional Weather Roundup
Issued by NWS Northern Indiana

Home | Current Version | Previous Version | Text Only | Print | Product List | Glossary Off
Versions: 1 2 3 4 5 6 7 8 9 10 11 12 13 14 15 16 17 18 19 20 21 22 23 24 25 26 27 28 29 30 31 32 33 34 35 36 37 38 39 40 41 42 43 44 45 46 47 48 49 50

000
ASUS43 KIWX 220810
RWRIWX

KIWX WEATHER ROUNDUP
NATIONAL WEATHER SERVICE NORTHERN INDIANA
300 AM EST MON JAN 22 2018

NOTE: "FAIR" INDICATES FEW OR NO CLOUDS BELOW 12,000 FEET WITH NO
SIGNIFICANT WEATHER AND/OR OBSTRUCTIONS TO VISIBILITY.

* THESE STATIONS ARE NOT UNDER NWS QUALITY CONTROL. THEY ALSO MAY NOT
  REPORT WEATHER SUCH AS PRECIPITATION OR FOG.

INZ001>027-220900-
NORTHERN INDIANA

CITY           SKY/WX    TMP DP  RH WIND       PRES   REMARKS
GARY*          LGT RAIN  49  49 100 SE3       29.79F
VALPARAISO     RAIN      48  47  96 SE9       29.80F FOG
MICHIGAN CITY* LGT RAIN  46  46 100 CALM      29.81F
LAPORTE*       RAIN      42  42 100 SE5       29.82F VSB 1/4
KNOX*          CLOUDY    45  45 100 SE8       29.82S
SOUTH BEND     LGT RAIN  45  44  97 SE5       29.84F
GOSHEN         LGT RAIN  46  45  96 SE8       29.84F
MONTICELLO*    LGT RAIN  48  46  95 SE3       29.81F
LOGANSPORT*    CLOUDY    45  45 100 S8        29.84F
ROCHESTER*     CLOUDY    48 N/A N/A S8        29.84F HAZE
WARSAW*        LGT RAIN  46  46 100 SE3       29.85F
AUBURN*        RAIN     N/A N/A N/A SE3       29.89F VSB 3/4
FORT WAYNE     DRZL/FOG  46  45  96 SE7       29.88F VSB 1/4
HUNTINGTON*    CLOUDY    48  46  95 S6        29.87S
PERU/GRISSOM   MOCLDY    47  47 100 S9        29.84F
MARION*        MOCLDY    49  48  99 S13       29.88S

$$
INZ028>050-220900-
CENTRAL INDIANA

CITY           SKY/WX    TMP DP  RH WIND       PRES   REMARKS
LAFAYETTE      CLOUDY    51  49  92 S8        29.81F
MUNCIE*        CLOUDY    55  47  74 S14G21    29.88F
INDIANAPOLIS   MOCLDY    48  47  96 SE7       29.88F

$$
MIZ043>046-050>051-056>058-064>065-071>073-077>080-220900-
SOUTHWEST LOWER MICHIGAN

CITY           SKY/WX    TMP DP  RH WIND       PRES   REMARKS
BATTLE CREEK   FOG       41  41 100 SE7       29.87F VSB 1/4
BENTON HARBOR  FOG       46  45  96 E6        29.82F VSB 1/2
COLDWATER*     RAIN      45  45 100 SE8       29.88R VSB 1
HILLSDALE*     RAIN      41  41 100 SE7       29.88F VSB 1/4
HOLLAND        FOG       39  38  96 E8        29.85F VSB 1
GRAND RAPIDS   CLOUDY    37  36  96 E8        29.88S FOG
KALAMAZOO      FOG       43  41  93 CALM      29.86F VSB 1/4
STURGIS*       RAIN      47  47  98 S8        29.85F
THREE RIVERS*  HVY RAIN  43  43 100 CALM      29.86F VSB 1/4

$$
OHZ001>008-015>018-024>025-220900-
NORTHWEST OHIO

CITY           SKY/WX    TMP DP  RH WIND       PRES   REMARKS
WAUSEON*       LGT RAIN  43  43 100 S8        29.90F VSB 1/4
DEFIANCE       LGT RAIN  46  45  96 E3        29.90F FOG
FINDLAY        LGT RAIN  48  45  89 SE9       29.92F FOG
TOLEDO EXPRESS LGT RAIN  45  45 100 S7        29.92S FOG
TOLEDO METCALF LGT RAIN  45  43  93 S7        29.94F FOG
LIMA           LGT RAIN  49  48  97 S9        29.92F

$$
AND FOR LAKE MICHIGAN COASTAL AND OPEN LAKE BUOY OBSERVATIONS

STATION/POSITION TEMP    WIND        PRES    VSBY  WAVE
                 AIR SEA DIR/SP/G                  HT/PER
                 (F)     (DEG/KT/KT) (MB)    (MI)  (FT/S)
CALUMET HARBOR    41     100/  5/  5 1008.1F
MICHIGAN CITY     47     140/ 10/ 12   N/A
BURNS HARBOR      50     160/ 14/ 17 1009.5F
SAINT JOSEPH      46      CALM  /  5 1010.2

$$
&&



USA.gov is the U.S. government's official web portal to all federal, state and local government web resources and services.